Omaha, NE

2:59 PM CDT on August 28, 2016 (GMT -0500)
Eppley Airfield

Weather History for KOMA - October, 2014

Change the Weather History Date:

Friday, October 17, 2014

  Actual Average Record
Temperature  
Mean Temperature 54 °F 53 °F  
Max Temperature 64 °F 64 °F 84 °F (1947)
Min Temperature 43 °F 41 °F 18 °F (1976)
Degree Days  
Heating Degree Days 11 12  
Month to date heating degree days 171 167  
Since 1 July heating degree days 249 270  
Cooling Degree Days 0 0  
Month to date cooling degree days 4 12  
Year to date cooling degree days 1147 1109  
Growing Degree Days 5 (Base 50)    
Moisture  
Dew Point 42 °F    
Average Humidity 65    
Maximum Humidity 83    
Minimum Humidity 46    
Precipitation  
Precipitation 0.00 in 0.07 in 2.72 in (1883)
Month to date precipitation 1.46 1.24  
Year to date precipitation 36.22 27.03  
Snow  
Snow 0.00 in 0.00 in - ()
Month to date snowfall 0.0 0.1  
Since 1 July snowfall 0.0 0.1  
Snow Depth 0.00 in    
Sea Level Pressure  
Sea Level Pressure 29.98 in    
Wind  
Wind Speed 15 mph (NW)    
Max Wind Speed 29 mph    
Max Gust Speed 35 mph    
Visibility 10 miles    
Events      
T = Trace of Precipitation, MM = Missing Value Source: NWS Daily Summary

Daily Weather History Graph

Daily Weather History Graph

Search for Another Location

Airport or City:

Trip Planner

Search our weather history database for the weather conditions in past years. The results will help you decide how hot, cold, wet, or windy it might be!

Date:

Astronomy

Oct. 17, 2014 Rise Set
Actual Time 7:37 AM CDT 6:39 PM CDT
Civil Twilight 7:09 AM CDT 7:07 PM CDT
Nautical Twilight 6:37 AM CDT 7:39 PM CDT
Astronomical Twilight 6:05 AM CDT 8:11 PM CDT
Moon 1:39 AM CDT (10/17) 3:30 PM CDT (10/17)
Length of Visible Light 11h 57m
Length of Day
11h 01m
Waning Crescent, 32% of the Moon is Illuminated
Oct 17
Waning Crescent
Oct 23
New
Oct 30
First Quarter
Nov 6
Full
Nov 14
Last Quarter

Hourly Weather History & Observations

Time (CDT) Temp. Windchill Dew Point Humidity Pressure Visibility Wind Dir Wind Speed Gust Speed Precip Events Conditions
12:20 AM - - - N/A% - - West 9.2 mph - N/A   Scattered Clouds
12:52 AM 55.0 °F - 39.0 °F 55% 29.84 in 10.0 mi NW 10.4 mph - N/A   Clear
1:52 AM 55.0 °F - 42.1 °F 62% 29.85 in 10.0 mi NW 13.8 mph - N/A   Clear
2:52 AM 55.9 °F - 43.0 °F 62% 29.86 in 10.0 mi NW 12.7 mph - N/A   Mostly Cloudy
3:52 AM 55.4 °F - 44.6 °F 67% 29.87 in 10.0 mi NW 9.2 mph - N/A   Mostly Cloudy
4:52 AM 55.0 °F - 43.0 °F 64% 29.87 in 10.0 mi NW 15.0 mph - N/A   Overcast
5:52 AM 55.9 °F - 43.0 °F 62% 29.87 in 10.0 mi NW 13.8 mph - N/A   Overcast
6:52 AM 55.9 °F - 43.0 °F 62% 29.89 in 10.0 mi NW 18.4 mph 24.2 mph N/A   Overcast
7:52 AM 55.9 °F - 43.0 °F 62% 29.92 in 10.0 mi NW 16.1 mph - N/A   Overcast
8:52 AM 55.0 °F - 43.0 °F 64% 29.95 in 10.0 mi NNW 15.0 mph 24.2 mph N/A   Overcast
9:52 AM 55.4 °F - 42.8 °F 63% 29.97 in 10.0 mi NW 20.7 mph 27.6 mph N/A   Mostly Cloudy
10:52 AM 57.9 °F - 42.1 °F 56% 29.98 in 10.0 mi NW 20.7 mph 31.1 mph N/A   Mostly Cloudy
11:52 AM 59.0 °F - 41.0 °F 51% 30.00 in 10.0 mi NW 25.3 mph 33.4 mph N/A   Mostly Cloudy
12:52 PM 62.1 °F - 42.1 °F 48% 30.00 in 10.0 mi NW 20.7 mph - N/A   Scattered Clouds
1:52 PM 63.0 °F - 42.1 °F 46% 29.99 in 10.0 mi NW 20.7 mph 27.6 mph N/A   Scattered Clouds
2:52 PM 63.0 °F - 42.1 °F 46% 30.00 in 10.0 mi NNW 21.9 mph 28.8 mph N/A   Partly Cloudy
3:52 PM 63.0 °F - 41.0 °F 45% 30.01 in 10.0 mi NW 17.3 mph 28.8 mph N/A   Partly Cloudy
4:52 PM 63.0 °F - 41.0 °F 45% 30.02 in 10.0 mi NW 19.6 mph 26.5 mph N/A   Partly Cloudy
5:52 PM 61.0 °F - 41.0 °F 48% 30.03 in 10.0 mi NNW 16.1 mph - N/A   Partly Cloudy
6:52 PM 55.9 °F - 41.0 °F 57% 30.06 in 10.0 mi NNW 10.4 mph - N/A   Partly Cloudy
7:52 PM 54.0 °F - 41.0 °F 62% 30.09 in 10.0 mi NNW 9.2 mph - N/A   Clear
8:52 PM 50.0 °F - 41.0 °F 71% 30.11 in 10.0 mi NNW 9.2 mph - N/A   Clear
9:52 PM 51.1 °F - 39.9 °F 66% 30.13 in 10.0 mi North 8.1 mph - N/A   Clear
10:52 PM 46.9 °F - 39.9 °F 77% 30.15 in 10.0 mi North 9.2 mph - N/A   Clear
11:52 PM 44.1 °F 38.6 °F 39.0 °F 82% 30.17 in 10.0 mi NNW 10.4 mph - N/A   Clear